Hourly Weather Roundup
Issued by NWS Central Illinois

Home | Current Version | Previous Version | Text Only | Print | Product List | Glossary On
Versions: 1 2 3 4 5 6 7 8 9 10 11 12 13 14 15 16 17 18 19 20 21 22 23 24 25 26 27 28 29 30 31 32 33 34 35 36 37 38 39 40 41 42 43 44 45 46 47 48 49 50
000
NZUS43 KILX 010610
HWRILX

AREA WEATHER ROUNDUP
NATIONAL WEATHER SERVICE, LINCOLN IL
100 AM CDT TUE SEP 01 2015


CITY           SKY/WX    TMP DP  RH WIND       PRES   REMARKS
BLOOMINGTON    FAIR      74  72  93 S8        30.08R
6HR MIN TEMP:  74; 6HR MAX TEMP:  82;

CHAMPAIGN      FAIR      72  69  90 S6        30.08S
6HR MIN TEMP:  71; 6HR MAX TEMP:  81;

DANVILLE       FAIR      68  67  98 CALM      30.06S FOG
6HR MIN TEMP:  67; 6HR MAX TEMP:  78;

DECATUR        FAIR      74  69  85 S6        30.07R
6HR MIN TEMP:  74; 6HR MAX TEMP:  83;

EFFINGHAM      FAIR      72  67  84 CALM      30.09S
FLORA          FAIR      69  67  92 CALM      30.09S
6HR MIN TEMP:  69; 6HR MAX TEMP:  81;

GALESBURG      FAIR      73  70  91 S5        30.03S
JACKSONVILLE   FAIR      78  73  84 S7        30.04S HX  80
6HR MIN TEMP:  78; 6HR MAX TEMP:  86;

LACON          FAIR      74  70  87 S5        30.03S
6HR MIN TEMP:  74; 6HR MAX TEMP:  82;

LAWRENCEVILLE  FAIR      70  66  87 CALM      30.09S
6HR MIN TEMP:  70; 6HR MAX TEMP:  81;

LITCHFIELD     FAIR      71  69  91 S5        30.07R
$$


CITY           SKY/WX    TMP DP  RH WIND       PRES   REMARKS
LINCOLN        FAIR      73  70  88 S3        30.05S
6HR MIN TEMP:  73; 6HR MAX TEMP:  83;

MACOMB         FAIR      74  71  91 S7        30.04S
MATTOON        HAZE      73  67  81 S7        30.07S VSB 1/2
6HR MIN TEMP:  73; 6HR MAX TEMP:  80;

MT CARMEL AP   FAIR      68  64  88 CALM      30.09S
OLNEY-NOBLE AP FAIR      70  68  94 CALM      30.09S
PARIS          FAIR      69  67  94 CALM      30.09S
6HR MIN TEMP:  68; 6HR MAX TEMP:  80;

PEORIA         FAIR      77  71  82 S6        30.04S
6HR MIN TEMP:  77; 6HR MAX TEMP:  84;

PONTIAC        MOCLDY    75  73  92 S6        30.06S
RANTOUL        FAIR      72  70  92 SE5       30.08R
6HR MIN TEMP:  72; 6HR MAX TEMP:  81;

ROBINSON       FAIR      66  64  93 S3        30.10S
6HR MIN TEMP:  66; 6HR MAX TEMP:  80;

SPRINGFIELD    FAIR      77  71  82 S12       30.05R
6HR MIN TEMP:  77; 6HR MAX TEMP:  84;

TAYLORVILLE    FAIR      72  70  94 S6        30.07R
$$

...REGIONAL REPORTS...


CITY           SKY/WX    TMP DP  RH WIND       PRES   REMARKS
CHICAGO O`HARE FAIR      71  68  90 S5        30.04S
KANKAKEE       MOCLDY    71  69  95 CALM      30.07S
MOLINE         FAIR      76  70  82 S7        30.00S
MOUNT STERLING FAIR      72  71  95 S5        30.03S
MOUNT VERNON   FAIR      70  64  83 CALM      30.09S
PITTSFIELD     FAIR      74  71  88 S3        30.05S
QUINCY         MOCLDY    77  72  84 S6        30.02S
ROCKFORD       FAIR      72  67  84 S5        30.04S
$$


CITY           SKY/WX    TMP DP  RH WIND       PRES   REMARKS
BURLINGTON     FAIR      75  72  90 S7        30.00S
CEDAR RAPIDS   FAIR      72  72 100 S6        29.99R FOG
DES MOINES     FAIR      74  69  85 S6        29.96R
KIRKSVILLE     FAIR      73  68  84 S6        30.02S
OTTUMWA        FAIR      70  69  97 S6        29.98R
ST LOUIS       FAIR      79  71  76 S3        30.06S HX  82
$$


CITY           SKY/WX    TMP DP  RH WIND       PRES   REMARKS
TERRE HAUTE    FAIR      68  65  90 CALM      30.09S
EVANSVILLE     MOCLDY    71  68  90 CALM      30.10S
INDIANAPOLIS   MOCLDY    73  67  81 S3        30.10S
LAFAYETTE      FAIR      69  67  93 CALM      30.08S
MADISON        FAIR      72  67  84 S6        30.01S
MILWAUKEE      FAIR      69  65  86 S6        30.04S
$$





USA.gov is the U.S. government's official web portal to all federal, state and local government web resources and services.